Location: Unspecified
(0.0000°N, 0.0000°E)
Time: 10:37:16
(UTC+00:00)

Vanguard 3 - Pass Details

Date: 07 October 2022
Orbit: 509 x 3255 km, 33.3° (Epoch: 29 November)

Event Time Altitude Azimuth Distance (km) Brightness Sun altitude
Exits shadow 04:29:26 22° 332° (NNW) 1,493 8.2 -19.5°
Drops below altitude 10° 04:32:05 10° 11° (NNE) 1,917 9.1 -18.9°
Sets 04:34:25 0° 28° (NNE) 2,676 10.1 -18.3°
